Location: Engwier
(53.0720°N, 5.4142°E)
Time: 18:40:57
(UTC+00:00)

Daily predictions for brighter satellites

Satellite Brightness Start Highest point End
(mag) Time Altitude Azimuth Time Altitude Azimuth Time Altitude Azimuth
Cosmos 2263 Rocket 3.2 17:47:47 10° NW 17:53:11 51° WSW 17:58:32 10° S
Meteor 1-18 Rocket 4.5 17:48:03 10° N 17:53:55 57° ENE 17:59:44 10° SSE
Cosmos 968 Rocket 3.6 17:48:51 10° NNW 17:54:10 90° ENE 17:59:27 10° SSE
SL-16 R/B 2.6 17:51:15 10° S 17:56:34 44° ESE 18:01:55 10° NE
FALCON 9 DEB 2.9 17:54:00 10° W 17:57:12 87° S 18:00:22 10° E
Cosmos 1486 Rocket 4.1 17:52:35 10° NNW 17:57:55 86° ENE 18:03:14 10° SSE
Cosmos 1515 3.8 17:54:38 10° N 17:58:26 55° ENE 18:02:11 10° SSE
Okean 1 3.4 17:54:31 10° N 17:58:30 55° ENE 18:02:28 10° SSE
ARGOS 3.3 17:53:23 10° SE 17:58:41 57° ENE 18:04:01 10° N
SJ 16-02 3.3 17:57:32 10° N 17:59:46 13° NE 18:01:58 10° ENE
SeaSat 1 3.6 17:57:26 10° NE 18:01:21 23° ESE 18:05:15 10° SSE
Okean 1-7 4.0 17:58:05 10° N 18:01:51 27° ENE 18:05:32 10° SE
Cosmos 1707 Rocket 3.9 17:57:36 10° NNW 18:02:01 73° W 18:06:21 10° S
Cosmos 2084 4.3 17:57:55 10° WSW 18:02:03 47° NNW 18:06:18 10° NE
Cosmos 2369 Rocket 4.4 18:00:51 10° NNW 18:03:07 12° N 18:05:22 10° NNE
Cosmos 1633 Rocket 3.2 17:59:51 10° S 18:04:11 56° E 18:08:32 10° NNE
Cosmos 2184 Rocket 4.0 17:58:18 10° S 18:04:24 67° E 18:10:35 10° NNE
OBJECT-B 2.8 18:03:29 10° E 18:05:01 13° ENE 18:06:33 10° NNE
CZ-2C R/B 3.4 18:01:28 10° NNE 18:06:22 32° E 18:11:08 10° SSE
SAR-Lupe-4 4.3 18:05:57 10° NNE 18:09:10 31° E 18:12:23 10° SSE
CZ-4 R/B 1.4 18:06:01 10° SSE 18:09:53 85° WSW 18:13:51 10° NNW
H-2A R/B 2.2 18:04:34 10° SSE 18:10:02 89° ENE 18:15:31 10° NNW
USA 305 2.9 18:06:28 10° W 18:10:46 86° N 18:14:50 11° ENE
Gbstr 26 Del rocket 3.3 18:09:11 10° WSW 18:13:31 68° SSE 18:18:27 12° E
IRS-1C Rocket 4.5 18:08:35 10° S 18:13:51 72° WSW 18:19:09 10° NNW
SL-4 R/B 1.7 18:12:05 10° W 18:15:40 68° S 18:18:38 13° ESE
Meteor 1-20 Rocket 4.1 18:11:06 10° S 18:16:32 77° E 18:22:04 10° NNE
Cosmos 1302 Rocket 4.0 18:11:38 10° SSW 18:16:50 87° ESE 18:22:06 10° NNE
CSL-04 DEB 4.4 18:13:18 10° NNE 18:17:16 83° WNW 18:21:16 10° SSW
USA 307 2.9 18:17:44 10° W 18:22:03 84° N 18:25:41 14° E
FALCON 9 DEB 3.8 18:19:48 10° W 18:23:08 48° SSW 18:26:13 11° SE
Cosmos 1354 Rocket 4.0 18:19:21 10° NNW 18:24:38 76° ENE 18:29:52 10° SSE
ATLAS CENTAUR R/B 2.4 18:22:31 10° S 18:25:18 21° ESE 18:26:57 16° E
USA 306 2.9 18:21:09 10° W 18:25:27 82° N 18:28:56 15° E
USA 186 2.4 18:25:07 19° E 18:25:47 22° ENE 18:27:49 10° NNE
Cosmos 44 Rocket 4.4 18:21:02 10° NW 18:26:06 51° SW 18:31:07 10° SSE
ERS-2 2.3 18:22:57 10° NNE 18:26:32 50° ESE 18:30:06 10° S
FALCON 9 DEB 2.8 18:24:28 10° W 18:27:39 88° N 18:29:48 19° E
Cosmos 1844 Rocket 2.6 18:22:45 10° NNW 18:28:22 80° ENE 18:33:57 10° SE
SAR-Lupe-1 4.2 18:25:10 10° NNE 18:28:42 50° ESE 18:32:12 10° S
Cosmos 2084 Rocket 4.3 18:24:30 10° NW 18:28:42 52° SW 18:33:02 10° SSE
FALCON 9 DEB 2.9 18:26:25 10° W 18:29:38 88° NNE 18:31:45 20° E
Okean-O 3.0 18:25:22 10° S 18:29:46 68° WSW 18:34:13 10° NNW
CSL-04 Rocket 3.7 18:25:37 10° SSE 18:31:10 80° ENE 18:36:42 10° NNW
CSL-04 Debris 4.2 18:27:03 10° SSE 18:32:31 87° ENE 18:38:02 10° NNW
USA 308 2.9 18:28:20 10° W 18:32:38 81° N 18:35:51 17° E
Cosmos 1777 Rocket 4.3 18:28:09 10° NNW 18:33:15 47° NE 18:37:59 12° SE
Cosmos 1503 Rocket 4.1 18:29:38 10° NNW 18:34:52 82° WSW 18:40:02 10° SSE
H-2A R/B 4.1 18:31:41 10° N 18:35:16 29° WNW 18:38:50 10° WSW
Cosmos 1666 3.6 18:32:19 10° SE 18:35:25 25° E 18:38:32 10° NNE
HJ-1C 3.6 18:34:20 10° S 18:37:39 70° WSW 18:40:58 10° NNW
PSLV R/B 3.8 18:33:31 10° NNE 18:37:40 82° ESE 18:41:44 10° SSW
Cosmos 2341 Rocket 4.2 18:33:32 10° SSE 18:39:31 48° E 18:45:29 10° NNE
Meteor 1-5 Rocket 4.5 18:34:45 10° SSE 18:39:46 41° E 18:44:57 10° NNE
Cosmos 1844 3.7 18:34:20 10° NNW 18:40:11 82° ENE 18:45:55 10° SE
Okean 3 4.3 18:36:40 10° N 18:40:29 31° ENE 18:42:57 18° ESE
CZ-4B R/B 3.0 18:38:51 10° N 18:41:40 34° WNW 18:44:28 10° SW
Cosmos 1470 Rocket 3.5 18:38:55 10° S 18:43:23 78° E 18:47:50 10° NNE
Cosmos 2278 Rocket 3.1 18:40:28 10° NNW 18:45:33 32° NE 18:48:36 20° E
Cosmos 2360 Rocket 2.4 18:40:31 10° S 18:45:54 48° ESE 18:51:21 10° NE
Ariane Rocket 3.4 18:42:04 11° SE 18:46:35 43° ENE 18:51:24 10° N
Cosmos 1602 4.2 18:43:09 10° SSW 18:47:02 64° WNW 18:50:57 10° N
Cosmos 1727 Rocket 4.5 18:42:47 10° N 18:48:29 37° ENE 18:52:57 16° SE
Meteor 2-4 Rocket 3.8 18:46:15 10° NNW 18:52:06 88° W 18:58:03 10° S
Cosmos 1703 Rocket 3.4 18:48:00 10° N 18:52:27 76° E 18:56:49 10° SSE
DMSP B5D1-3 4.5 18:47:30 10° NNE 18:52:42 87° ESE 18:57:51 10° SSW
Cosmos 1500 3.0 18:50:19 10° S 18:54:02 78° E 18:57:48 10° NNE
Cosmos 1689 Rocket 2.4 18:52:15 10° N 18:55:07 64° WNW 18:57:57 10° SSW
Cosmos 2333 Rocket 3.0 18:51:28 10° SSE 18:56:14 28° ESE 19:01:02 10° NE
Cosmos 2218 Rocket 4.3 18:52:08 10° SSE 18:58:08 44° E 19:04:09 10° NNE
SL-08 RB Rocket 4.0 18:53:52 10° S 18:58:22 68° WSW 19:02:58 10° NNW
Meteor 2-12 Rocket 4.4 18:53:35 10° S 18:59:40 89° W 19:05:49 10° N
ERBS 2.4 18:57:34 10° WSW 19:00:52 69° NNW 19:02:18 30° NE
Cosmos 1980 Rocket 3.9 18:57:15 10° WSW 19:02:21 32° NW 19:07:29 10° NNE
Aureole 2 Rocket 4.4 19:01:24 10° NW 19:03:21 19° WSW 19:05:15 10° SSW
Cosmos 1933 Rocket 3.4 18:59:55 10° S 19:04:17 85° E 19:08:42 10° NNE
Cosmos 1943 Rocket 4.0 19:00:38 10° NNW 19:04:19 17° NNE 19:06:52 13° NE
Cosmos 2242 Rocket 3.9 19:05:58 10° NNW 19:10:29 67° W 19:14:55 10° S
Resurs 01 Rocket 2.3 19:12:40 32° E 19:13:12 33° ENE 19:17:10 10° N
Cosmos 2322 Rocket 2.4 19:10:15 10° SW 19:15:51 72° NW 19:21:31 10° NNE
Cosmos 1461 4.1 19:11:29 10° WSW 19:16:04 47° NW 19:20:39 10° NE
SME Rocket 4.4 19:07:57 10° NNE 19:16:38 56° E 19:22:13 10° S
Abrixas rocket 3.4 19:14:33 10° WSW 19:16:07 24° SSW 19:16:07 24° SSW
Lacrosse 4 Rocket 3.7 19:14:11 10° S 19:14:29 11° SSE 19:14:29 11° SSE
Cosmos 1959 Rocket 4.4 19:14:16 10° S 19:20:15 59° E 19:26:15 10° NNE
FALCON 9 DEB 2.7 19:17:26 10° W 19:20:38 82° S 19:20:47 78° SE
Cosmos 192 4.5 19:18:39 10° S 19:23:19 46° ESE 19:28:02 10° NE
SJ-6B 3.0 19:22:30 17° S 19:25:36 78° WSW 19:29:39 10° NNW
ASTEX 1 3.3 19:20:59 10° NNE 19:25:50 61° E 19:30:11 13° S
COSMOS 2428 3.5 19:21:08 10° S 19:32:11 - NE 19:24:51 31° SE
Meteor 1-23 Rocket 4.2 19:22:24 10° N 19:27:56 61° ENE 19:30:27 32° SE
GP-B 3.9 19:25:37 10° SSW 19:29:57 51° W 19:34:19 10° N
MOS 1 4.2 19:25:33 14° SSE 19:30:30 89° ENE 19:36:13 10° NNW
FALCON 9 DEB 3.2 19:29:51 10° W 19:32:42 64° WSW 19:32:42 64° WSW
Cosmos 2219 Rocket 2.4 19:27:48 10° S 19:33:04 44° ESE 19:38:23 10° NE
Meteor 1-11 Rocket 3.6 19:27:47 10° S 19:33:26 64° E 19:38:58 10° NNE
OBJECT-B 1.2 19:36:24 54° SW 19:36:50 62° WSW 19:40:04 10° NNW
SJ 16-02 1.3 19:34:53 10° NNW 19:39:17 62° ENE 19:39:34 60° E
SeaSat 1 2.6 19:34:22 10° NNE 19:39:19 73° NW 19:44:14 10° SW
Okean 1-7 4.3 19:35:26 10° NNW 19:39:34 42° W 19:43:40 10° SSW
Resurs 1-3 3.5 19:38:47 46° SSE 19:40:03 84° ENE 19:44:29 10° NNW
SL-16 R/B 3.3 19:35:18 10° WSW 19:40:43 45° NW 19:46:11 10° NNE
Cosmos 1066 Rocket 4.2 19:36:07 10° NNW 19:41:51 88° WSW 19:45:41 22° S
Terra 3.8 19:42:57 15° NE 19:42:57 15° NE 19:44:48 10° NNE
USA 234 3.3 19:39:54 34° E 19:42:31 54° SE 19:48:54 10° SW
Cosmos 1536 3.9 19:46:16 33° NNE 19:46:16 33° NNE 19:48:37 10° NNE
CZ-2C R/B 3.5 19:41:34 10° N 19:46:55 52° WNW 19:52:07 10° SW
Meteor 2-20 Rocket 4.4 19:41:23 10° N 19:47:28 61° ENE 19:49:08 45° SE
USA 281 4.4 19:47:39 24° ENE 19:49:16 26° NE 19:54:30 10° NNW
Cosmos 2369 Rocket 3.9 19:45:40 10° NNW 19:49:33 19° NNE 19:50:42 18° NE
USA 305 2.7 19:46:34 10° W 19:50:52 85° NNE 19:50:56 84° NE
BREEZE-M DEB (TANK) 2.9 19:48:22 10° W 19:51:07 51° S 19:51:09 51° S
DMSP B5D2-2 4.4 19:47:36 10° N 19:52:48 64° WNW 19:57:57 10° SSW
Cosmos 2322 3.6 19:47:19 10° SSW 19:53:00 73° ESE 19:58:45 10° NE
SL-4 R/B 3.1 19:51:45 10° W 19:54:12 29° SW 19:54:12 29° SW
USA 186 4.3 19:56:42 15° W 19:56:42 15° W 19:58:13 10° NW
Cosmos 1898 Rocket 3.8 19:52:48 10° NNW 19:57:50 50° NE 19:57:50 50° NE
Cosmos 1869 Rocket 3.9 19:54:17 10° SSW 19:58:37 66° WNW 20:03:02 10° N
Gbstr 26 Del rocket 3.4 19:55:36 10° W 20:00:23 75° S 20:00:59 67° SE
Spot 2 Rocket 4.1 20:01:34 42° NE 20:01:34 42° NE 20:05:47 10° N
SL-8 Rocket 4.3 19:55:02 10° SSW 20:01:13 66° WNW 20:07:25 10° N
USA 307 3.0 19:57:53 10° WNW 20:01:49 74° WNW 20:01:49 74° WNW
ERS-1 Rocket 4.2 20:04:10 29° NE 20:04:10 29° NE 20:07:28 10° N
ATLAS CENTAUR R/B 1.9 20:00:16 10° WSW 20:03:10 47° W 20:03:10 47° W
Cosmos 1378 3.9 20:00:16 10° NNW 20:03:53 50° W 20:03:53 50° W
USA 306 3.1 20:01:15 10° WNW 20:05:03 69° WNW 20:05:03 69° WNW
Cosmos 1666 4.4 20:07:30 10° SW 20:10:53 32° WNW 20:14:17 10° N
USA 308 3.4 20:08:28 10° WNW 20:11:59 59° WNW 20:11:59 59° WNW
NOSS 3-3 (A) 4.4 20:08:56 10° NW 20:16:16 82° SW 20:18:42 50° SSE
Cosmos 2366 rocket 4.4 20:10:01 10° SSW 20:16:17 64° WNW 20:22:38 10° N
NOSS 3-3 (C) 4.4 20:09:03 10° NW 20:16:22 83° SW 20:18:47 50° SE
Landsat 7 3.9 20:17:05 68° N 20:17:05 68° N 20:21:16 10° NNW
USA 81 4.2 20:17:38 61° NNE 20:17:38 61° NNE 20:22:03 10° N
SL-08 R/B 4.5 20:11:58 16° S 20:17:15 88° E 20:23:47 10° N
SPOT 3 Rocket 3.7 20:18:37 59° SSW 20:19:28 70° WSW 20:24:43 10° NNW
ARIANE 5 R/B 3.8 20:21:38 35° N 20:21:38 35° N 20:24:24 10° N
Cosmos 2221 Rocket 4.2 20:18:50 10° NNW 20:23:08 52° W 20:23:09 52° W
Cosmos 2333 4.4 20:18:05 10° SW 20:23:44 69° NW 20:29:29 10° NNE
Ariane Rocket 4.4 20:22:15 17° SSW 20:25:39 35° W 20:30:20 10° NNW
SPOT 1/Viking Rocket 3.7 20:29:56 64° N 20:29:56 64° N 20:34:20 10° NNW
Cosmos 2360 Rocket 3.4 20:24:41 10° WSW 20:30:02 42° NW 20:35:26 10° NNE
Cosmos 2278 Rocket 2.3 20:24:27 10° NW 20:30:07 68° WSW 20:30:28 66° SW
Cosmos 990 Rocket 4.2 20:29:31 10° NNW 20:34:05 68° NW 20:34:05 68° NW
SPOT 5 4.4 20:41:58 27° N 20:41:58 27° N 20:44:10 10° N
Cosmos 2333 Rocket 2.5 20:34:26 10° SW 20:40:06 66° NW 20:45:51 10° NNE
Cosmos 1821 Rocket 3.9 20:41:55 79° SW 20:42:16 84° W 20:48:29 10° N
Cosmos 1943 Rocket 3.1 20:44:08 10° NNW 20:48:24 39° NNE 20:48:24 39° NNE
Resurs 01 Rocket 3.1 20:50:14 34° W 20:50:14 34° W 20:53:47 10° NNW
Cosmos 2123 Rocket 4.1 20:54:21 10° NNW 21:00:10 73° NW 21:00:10 73° NW
Cosmos 2322 Rocket 4.4 20:56:32 10° W 21:00:55 22° NNW 21:05:18 10° NNE
COSMOS 2428 4.3 21:04:42 10° SW 21:14:01 21° NNE 21:15:54 10° NNE
Cosmos 2219 Rocket 3.2 21:11:44 10° WSW 21:17:04 44° NW 21:22:28 10° NNE
SJ 16-02 3.8 21:14:17 10° NW 21:16:35 18° W 21:16:35 18° W
Terra 3.8 21:21:49 24° NNW 21:21:49 24° NNW 21:23:44 10° NNW
USA 234 3.6 21:27:15 57° W 21:27:15 57° W 21:32:22 10° WSW
USA 281 3.7 21:34:30 55° N 21:34:30 55° N 21:39:33 10° NNW
Cosmos 2369 Rocket 3.6 21:29:23 10° NNW 21:32:29 32° N 21:32:29 32° N
Cosmos 2333 Rocket 4.4 22:21:10 10° W 22:25:31 22° NNW 22:29:54 10° NNE
Cosmos 1943 Rocket 4.4 22:28:03 10° NW 22:29:55 21° NW 22:29:55 21° NW
